Weather History for Hettinger, ND

Change the Weather History Date:

Thursday, February 7, 2013

  Actual Average Record
Temperature  
Mean Temperature 32 °F -  
Max Temperature 46 °F 30 °F 52 °F (2000)
Min Temperature 17 °F 8 °F -22 °F (2014)
Degree Days  
Heating Degree Days 33 46  
Month to date heating degree days 242 325  
Since 1 July heating degree days 5130 5401  
Moisture  
Dew Point 23 °F    
Average Humidity 85    
Maximum Humidity 100    
Minimum Humidity 41    
Precipitation  
Precipitation 0.00 in 0.01 in 0.08 in (2005)
Month to date precipitation 0.03 0.13  
Year to date precipitation 0.06 0.44  
Sea Level Pressure  
Sea Level Pressure 30.08 in    
Wind  
Wind Speed 6 mph (SE)    
Max Wind Speed 16 mph    
Max Gust Speed 21 mph    
Visibility 4 miles    
Events Fog    
T = Trace of Precipitation, MM = Missing Value Source: NWS Daily Summary

Daily Weather History Graph

Daily Weather History Graph

Search for Another Location

Airport:

Trip Planner

Search our weather history database for the weather conditions in past years. The results will help you decide how hot, cold, wet, or windy it might be!

Date:

Astronomy

Feb. 07, 2013 Rise Set
Actual Time 7:04 AM MST 5:05 PM MST
Civil Twilight 6:33 AM MST 5:36 PM MST
Nautical Twilight 5:57 AM MST 6:12 PM MST
Astronomical Twilight 5:23 AM MST 6:47 PM MST
Moon 4:51 AM MST (2/7) 2:27 PM MST (2/7)
Length of Visible Light 11h 03m
Length of Day
10h 00m
Waning Crescent, 8% of the Moon is Illuminated
Feb 7
Waning Crescent
Feb 10
New
Feb 17
First Quarter
Feb 25
Full
Mar 4
Last Quarter

Hourly Weather History & Observations

Time (MST) Temp. Windchill Dew Point Humidity Pressure Visibility Wind Dir Wind Speed Gust Speed Precip Events Conditions
12:05 AM 23.0 °F - 21.2 °F 93% 30.01 in 0.5 mi Calm Calm - N/A Fog Light Freezing Fog
12:32 AM 24.8 °F 20.5 °F 23.0 °F 93% 30.02 in 0.2 mi East 3.5 mph - N/A Fog Light Freezing Fog
12:53 AM 25.0 °F 18.1 °F 23.0 °F 92% 30.08 in 0.2 mi ESE 5.8 mph - N/A Fog Light Freezing Fog
1:27 AM 24.8 °F 16.9 °F 24.8 °F 100% 30.01 in 0.2 mi SSE 6.9 mph - N/A Fog Light Freezing Fog
1:35 AM 24.8 °F 16.9 °F 24.8 °F 100% 30.01 in 0.2 mi SE 6.9 mph - N/A Fog Light Freezing Fog
1:53 AM 25.0 °F 18.1 °F 24.1 °F 96% 30.07 in 0.2 mi SE 5.8 mph - N/A Fog Light Freezing Fog
2:29 AM 24.8 °F 16.9 °F 23.0 °F 93% 30.01 in 0.2 mi SSE 6.9 mph - N/A Fog Light Freezing Fog
2:53 AM 24.1 °F - 23.0 °F 96% 30.09 in 0.2 mi Calm Calm - N/A Fog Light Freezing Fog
3:53 AM 23.0 °F 18.4 °F 21.0 °F 92% 30.09 in 0.2 mi South 3.5 mph - N/A Fog Light Freezing Fog
4:53 AM 21.9 °F - 19.9 °F 92% 30.11 in 0.2 mi Calm Calm - N/A Fog Light Freezing Fog
5:40 AM 21.2 °F - 19.4 °F 93% 30.02 in 0.5 mi Calm Calm - N/A Fog Light Freezing Fog
5:53 AM 19.9 °F - 18.0 °F 92% 30.13 in 0.2 mi Calm Calm - N/A Fog Light Freezing Fog
6:07 AM 19.4 °F - 17.6 °F 93% 30.02 in 0.5 mi Calm Calm - N/A Fog Light Freezing Fog
6:25 AM 19.4 °F - 15.8 °F 86% 30.02 in 0.2 mi Calm Calm - N/A Fog Light Freezing Fog
6:38 AM 17.6 °F - 14.0 °F 86% 30.03 in 0.5 mi Calm Calm - N/A Fog Light Freezing Fog
6:46 AM 17.6 °F 12.3 °F 15.8 °F 93% 30.03 in 2.0 mi SSE 3.5 mph - N/A   Mostly Cloudy
6:50 AM 17.6 °F - 15.8 °F 93% 30.03 in 6.0 mi Calm Calm - N/A   Scattered Clouds
6:53 AM 17.1 °F 11.7 °F 14.0 °F 88% 30.14 in 9.0 mi SSE 3.5 mph - N/A   Scattered Clouds
7:53 AM 19.9 °F - 17.1 °F 89% 30.15 in 10.0 mi Calm Calm - N/A   Clear
8:53 AM 27.0 °F 23.0 °F 24.1 °F 89% 30.17 in 10.0 mi West 3.5 mph - N/A   Clear
9:53 AM 32.0 °F 23.6 °F 28.0 °F 85% 30.17 in 10.0 mi West 10.4 mph - N/A   Clear
10:53 AM 36.0 °F 28.5 °F 26.1 °F 67% 30.16 in 10.0 mi WNW 10.4 mph - N/A   Clear
11:53 AM 41.0 °F 34.3 °F 25.0 °F 53% 30.14 in 10.0 mi NW 11.5 mph - N/A   Clear
12:53 PM 43.0 °F 37.7 °F 24.1 °F 47% 30.12 in 10.0 mi West 9.2 mph - N/A   Clear
1:53 PM 45.0 °F 41.2 °F 24.1 °F 44% 30.10 in 10.0 mi Variable 6.9 mph - N/A   Clear
2:53 PM 45.0 °F - 23.0 °F 42% 30.10 in 10.0 mi Calm Calm - N/A   Clear
3:53 PM 45.0 °F - 23.0 °F 42% 30.10 in 10.0 mi Calm Calm - N/A   Clear
4:53 PM 35.1 °F 27.9 °F 24.1 °F 64% 30.12 in 10.0 mi East 9.2 mph - N/A   Clear
5:53 PM 33.1 °F 25.5 °F 27.0 °F 78% 30.13 in 10.0 mi ESE 9.2 mph - N/A   Clear
6:53 PM 30.0 °F 21.7 °F 26.1 °F 85% 30.15 in 10.0 mi SE 9.2 mph - N/A   Clear
7:53 PM 28.0 °F 18.6 °F 26.1 °F 92% 30.15 in 10.0 mi SE 10.4 mph - N/A   Clear
8:01 PM 28.4 °F 18.5 °F 26.6 °F 93% 30.03 in 10.0 mi SE 11.5 mph - N/A   Partly Cloudy
8:53 PM 27.0 °F 17.3 °F 25.0 °F 92% 30.13 in 7.0 mi SE 10.4 mph - N/A   Scattered Clouds
9:04 PM 26.6 °F 16.2 °F 24.8 °F 93% 30.02 in 5.0 mi SE 11.5 mph - N/A   Mostly Cloudy
9:19 PM 26.6 °F 16.2 °F 24.8 °F 93% 30.02 in 2.5 mi SE 11.5 mph - N/A   Overcast
9:31 PM 26.6 °F 16.2 °F 24.8 °F 93% 30.03 in 1.0 mi SE 11.5 mph - N/A   Overcast
9:40 PM 26.6 °F 16.8 °F 24.8 °F 93% 30.03 in 0.8 mi SE 10.4 mph - N/A   Mist
9:53 PM 27.0 °F 16.7 °F 25.0 °F 92% 30.12 in 0.8 mi SE 11.5 mph - N/A   Mist
10:53 PM 26.1 °F 16.2 °F 25.0 °F 96% 30.10 in 0.5 mi SE 10.4 mph - N/A Fog Light Freezing Fog
11:53 PM 26.1 °F 14.5 °F 24.1 °F 92% 30.08 in 0.8 mi SE 13.8 mph - N/A   Mist